Flag for South Korea Weather past 2 weeks in Incheon, South Korea

Now
79 °F

Passing clouds.


Feels Like: 80 °F
Forecast: 67 / 82 °F
Wind: 7 mph from Southwest

Location: Incheon International Airport

Current Time: Aug 29, 2015 at 1:13:38 PM

Latest Report: Aug 29, 2015 at 12:00 PM


Visibility: N/A

Pressure: 29.80 "Hg

Humidity: 51%

Dew point: 59 °F

Location of IncheonLocation

Historic Weather in Incheon — Graph

°F

Incheon temperature yesterday

Maximum temperature yesterday: 81 °F (at 1:00 PM)
Minimum temperature yesterday: 68 °F (at 2:30 AM)
Average temperature yesterday: 74 °F

Past Weeks' High & Low Weather Summary

 TemperatureHumidityPressure
High88 °F (Aug 18, 1:30 PM)89% (Aug 15, 2:30 AM)29.95 "Hg (Aug 15, 2:30 AM)
Low68 °F (Aug 17, 3:30 AM)32% (Aug 27, 1:00 PM)29.56 "Hg (Aug 25, 12:00 PM)
Average77 °F67%29.75 "Hg
* Reported Aug 14 11:00 AM — Aug 29 11:30 AM, Incheon, Weather by CustomWeather, © 2015

Note: Actual official high and low records may vary slightly from our data, if they occured in-between our weather recording intervals... More about our weather records

Advertising

Incheon weather history for previous 24 hours

 ConditionsComfort  
Time TempWeatherWind HumidityBarometerVisibility
11:30 AM
Sat, Aug 29
79 °FPassing clouds.6 mph54%29.83 "HgN/A
11:00 AM77 °FPassing clouds.8 mph65%29.83 "HgN/A
10:30 AM77 °FPassing clouds.10 mph65%29.83 "HgN/A
10:00 AM77 °FScattered clouds.9 mph65%29.83 "HgN/A
9:30 AM75 °FScattered clouds.9 mph74%29.83 "HgN/A
9:00 AM75 °FPassing clouds.9 mph74%29.80 "HgN/A
8:30 AM75 °FPassing clouds.5 mph69%29.80 "HgN/A
8:00 AM75 °FPassing clouds.3 mph69%29.80 "HgN/A
7:30 AM75 °FPassing clouds.1 mph69%29.80 "HgN/A
7:00 AM72 °FClear.2 mph78%29.80 "Hg10 mi
6:30 AM70 °FPassing clouds.3 mph78%29.80 "HgN/A
6:00 AM68 °FClear.3 mph83%29.80 "Hg10 mi
5:30 AM68 °FClear.3 mph83%29.80 "Hg10 mi
5:00 AM70 °FClear.1 mph78%29.80 "Hg10 mi
4:30 AM68 °FClear.1 mph78%29.80 "Hg10 mi
4:00 AM68 °FClear.2 mph78%29.80 "Hg10 mi
3:30 AM70 °FClear.2 mph78%29.80 "Hg10 mi
3:00 AM70 °FClear.2 mph73%29.80 "Hg10 mi
2:30 AM68 °FClear.1 mph78%29.80 "Hg10 mi
2:00 AM70 °FClear.1 mph73%29.80 "Hg10 mi
1:30 AM68 °FClear.1 mph78%29.80 "Hg10 mi
1:00 AM70 °FClear.2 mph73%29.80 "Hg10 mi
12:30 AM68 °FClear.2 mph73%29.80 "Hg10 mi
12:00 AM72 °FClear.1 mph65%29.80 "Hg10 mi
11:30 PM
Fri, Aug 28
72 °FClear.3 mph65%29.80 "Hg10 mi
11:00 PM73 °FClear.5 mph61%29.80 "Hg10 mi
10:30 PM73 °FClear.5 mph61%29.80 "Hg10 mi
10:00 PM73 °FClear.5 mph61%29.80 "Hg10 mi
9:30 PM73 °FClear.3 mph57%29.77 "Hg10 mi
9:00 PM73 °FClear.2 mph61%29.77 "Hg10 mi
8:30 PM73 °FClear.3 mph61%29.77 "Hg10 mi
8:00 PM73 °FSunny.3 mph65%29.77 "Hg10 mi
7:30 PM75 °FScattered clouds.7 mph65%29.74 "HgN/A
7:00 PM75 °FPassing clouds.8 mph65%29.74 "HgN/A
6:30 PM75 °FPassing clouds.10 mph69%29.74 "HgN/A
6:00 PM77 °FPassing clouds.10 mph61%29.74 "HgN/A
5:30 PM79 °FPassing clouds.12 mph58%29.74 "HgN/A
5:00 PM79 °FPassing clouds.10 mph58%29.74 "HgN/A
4:30 PM79 °FPassing clouds.12 mph51%29.74 "HgN/A
4:00 PM79 °FPassing clouds.9 mph54%29.74 "HgN/A
3:30 PM81 °FPassing clouds.13 mph51%29.74 "HgN/A
3:00 PM81 °FPassing clouds.10 mph51%29.74 "HgN/A
2:30 PM81 °FPassing clouds.10 mph48%29.74 "HgN/A
2:00 PM81 °FScattered clouds.7 mph54%29.74 "HgN/A
1:30 PM81 °FScattered clouds.6 mph48%29.77 "HgN/A
1:00 PM81 °FScattered clouds.9 mph54%29.77 "HgN/A
Weather by CustomWeather, © 2015

See weather overviewHow to use our weather pages